Location: Newark
(45.1114°N, 4.8975°E)
Time: 03:41:53
(UTC+00:00)

N. Korean satellite - Visible Passes

Search period start: 14 October 2019 00:00
Search period end: 24 October 2019 00:00
Orbit: 455 x 508 km, 97.2° (Epoch: 13 October)

Date Brightness Start Highest point End Pass type
(mag) Time Alt. Az. Time Alt. Az. Time Alt. Az.
14 Oct 10.6 18:01:09 10° WSW 18:01:51 10° W 18:02:34 10° WNW visible
15 Oct 7.8 05:22:13 10° NNE 05:25:42 48° E 05:29:12 10° S visible
15 Oct 9.6 17:33:42 10° SW 17:36:22 21° W 17:39:02 10° NW visible
16 Oct 9.3 04:57:21 10° NE 05:00:19 24° E 05:03:18 10° SSE visible
17 Oct 10.2 04:33:13 10° ENE 04:34:51 13° E 04:36:29 10° ESE visible
18 Oct 10.2 17:52:19 10° WSW 17:54:00 13° W 17:55:40 10° WNW visible
19 Oct 8.3 05:14:30 10° NNE 05:17:54 39° E 05:21:21 10° SSE visible
19 Oct 9.2 17:25:36 10° SSW 17:28:30 25° W 17:31:26 10° NW visible
20 Oct 9.7 04:49:45 10° NE 04:52:29 20° E 04:55:15 10° SE visible
21 Oct 10.5 04:26:20 10° E 04:26:59 10° E 04:27:37 10° E visible
22 Oct 7.1 05:31:49 10° NNE 05:35:26 67° E 05:39:04 10° S visible
22 Oct 9.9 17:43:52 10° SW 17:46:05 16° W 17:48:18 10° NW visible
23 Oct 8.7 05:06:45 10° NNE 05:10:04 32° E 05:13:23 10° SSE visible
23 Oct 8.7 17:17:30 10° SSW 17:20:36 32° W 17:23:46 10° NNW visible
